Location: La Trinit�
(48.1620°N, 3.4512°W)
Time: 09:09:26
(UTC+00:00)

Cosmos 1328 Rocket - Pass Details

Date: 08 May 2021
Orbit: 600 x 628 km, 82.5° (Epoch: 12 June)

Event Time Altitude Azimuth Distance (km) Brightness Sun altitude
Exits shadow 21:36:51 17° 190° (S) 1,596 5.3 -16.1°
Maximum altitude 21:40:16 86° 278° (W) 634 3.6 -16.4°
Drops below altitude 10° 21:44:44 10° 9° (N) 2,004 6.8 -16.9°
Sets 21:46:58 0° 10° (N) 2,912 7.7 -17.1°
